[[{"header":{"parameterUnit":"m.s-1","parameterCategory":1,"la1":30.2991,"la2":30.254,"lo1":-89.0895,"lo2":-89.0444,"dy":0.0017,"dx":0.0017,"nx":28,"ny":28,"refTime":"2024-02-27T09:00:00:Z","depth":0,"parameterNumber":2,"parameterNumberName":"U-component_of_WINDS"},"data":[0,0,0,0,0,0,0,0,0,0,0,0,0,0,0,0,0,0,0,0,0,0,0,0,0,0,0,0,0,0,0,0,0,0,0,0,0,0,0,0,0,0,0,0,0,0,0,0,0,0,0,0,0,0,0,0,0,0,0.9479,0.9481,0,0.9657,0.9659,0.9661,0.9674,0.9672,0.967,0.9668,0.9853,0.986,0.9866,0,0,0,0,0,0,0,0,0,0,0,0,0,0.9157,0.9163,0.9479,0.9481,0.9484,0.9656,0.9659,0.9661,0.9674,0.9671,0.9669,0.9667,0.9851,0.9859,0.9867,0,0,0,0,0,0,0,0,0,0,0,0,0,0.9312,0.9165,0.9479,0.9511,0.9515,0.9656,0.9659,0.9662,0.9674,0.9671,0.9668,0.9666,0.9848,0.9858,0.9868,0.999,0,0,0.9899,0.9903,0,0,0,0,0,0,0,0,0.9303,0.9324,0.9504,0.9509,0.9514,0.964,0.9613,0.9772,0.9675,0.9614,0.9668,0.9664,0.9785,0.98,0.984,0.9998,1.0006,0.99,0.9906,0.991,0.9913,0,0,0,0,0,0,0,0.9292,0.9316,0.9549,0.9506,0.9513,0.9518,0.9537,0.9643,0.9714,0.9619,0.9621,0.9641,0.9787,0.983,0.9844,1.0009,0.99,0.9909,0.9915,0.9919,1.028,1.0283,0,0,0,0,0,0,0.9275,0.9307,0.9544,0.9555,0.9399,0.9526,0.9547,0.9603,0.9713,0.9727,0.9643,0.9641,0.9814,0.9832,0.9851,1.0003,0.991,0.992,0.9926,1.0276,1.0281,1.0284,0,0,0,0,0,0,0.9268,0.9296,0.9537,0.9431,0.9462,0.9535,0.9597,0.9608,0.965,0.9731,0.9744,0.9674,0.9812,0.9836,0.9956,1.0009,0.9924,0.9934,1.0272,1.0278,1.0282,1.0306,0,0,0,0,0,0,0.9258,0.9293,0.9339,0.9432,0.9468,0.9637,0.96,0.9613,0.9667,0.9666,0.9763,0.9777,0.9812,0.994,0.9966,1.0022,0.9942,1.0268,1.0275,1.0281,1.03,1.0311,1.032,0,0,0,0,0,0.9247,0.9338,0.9341,0.9369,0.9526,0.964,0.9661,0.9698,0.9672,0.9719,0.9772,0.9773,0.9999,0.9952,0.9981,1.0041,1.0265,1.0273,1.028,1.0296,1.0309,1.032,0,0,0,0,0,0,0.925,0.9351,0.9355,0.9479,0.9551,0.9642,0.9703,0.971,0.9792,0.9787,0.9832,0.9854,0.9972,1.0018,0.9965,1.0166,1.0129,1.0143,1.0131,1.0144,1.0154,1.0141,0.995,0,0,0,0,0,0.9265,0.9347,0.9432,0.9534,0.9569,0.963,0.9681,0.9704,0.978,0.9811,0.9872,0.9947,1.0035,1.0092,1.0177,1.0307,1.033,1.0363,1.0372,1.038,1.0392,1.0467,1.0483,1.031,1.031,1.031,0,0,0.9297,0.9363,0.9412,0.9536,0.9594,0.968,0.9655,0.9747,0.9812,0.9825,0.9941,0.9989,1.0076,1.0201,1.026,1.0244,1.0445,1.039,1.0395,1.0404,1.0476,1.0493,1.0507,1.0316,1.0315,1.0314,0,0,0.94,0.9457,0.9549,0.9608,0.9696,0.9736,0.9758,0.9849,0.9881,0.9998,1.001,1.0089,1.0239,1.0301,1.0353,1.0481,1.0487,1.0508,1.056,1.0632,1.0646,1.0658,1.0706,1.0722,1.0519,1.052,1.052,0,0.9429,0.9558,0.9595,0.9688,0.9743,0.9758,0.9853,0.9909,1.0021,1.0059,1.0039,1.0229,1.0289,1.0431,1.0462,1.0502,1.0531,1.0497,1.064,1.0653,1.0665,1.0712,1.0729,1.0522,1.0521,1.0521,1.0521,0,0.9591,0.968,0.9744,0.9852,0.9914,1.0007,1.006,1.0119,1.0137,1.018,1.0301,1.0373,1.0474,1.0509,1.0528,1.0655,1.0642,1.0631,1.0595,1.0683,1.0728,1.0745,1.0525,1.0524,1.0523,1.0523,0,0,0.97,0.9828,0.9851,0.9901,1.0,1.0071,1.0166,1.0264,1.0315,1.0392,1.0474,1.0602,1.0592,1.0651,1.0677,1.074,1.084,1.0721,1.0724,1.0743,1.0987,1.0996,1.1015,1.0844,1.0848,1.085,1.098,0,0.9816,0.9983,1.0021,1.0166,1.0251,1.0267,1.035,1.0421,1.0464,1.0544,1.0592,1.0682,1.0662,1.0697,1.076,1.0814,1.089,1.0805,1.0923,1.0927,1.0902,1.1038,1.1048,1.1167,1.0997,1.1,1.1003,0,0.9973,1.0053,1.0207,1.0297,1.0334,1.0407,1.0502,1.0577,1.0659,1.0686,1.0752,1.0771,1.0873,1.0831,1.0973,1.0915,1.0966,1.1,1.1005,1.1019,1.0971,1.1057,1.1205,1.1224,1.103,1.1028,1.1026,0,1.004,1.0186,1.0298,1.034,1.0447,1.0499,1.0547,1.0625,1.0683,1.0766,1.0804,1.0898,1.095,1.1023,1.1068,1.1033,1.1208,1.1169,1.1235,1.1234,1.1272,1.1269,1.1431,1.1301,1.1301,1.1301,1.13,0,1.0165,1.0259,1.033,1.0398,1.0505,1.0548,1.0652,1.07,1.077,1.085,1.087,1.0945,1.1,1.1083,1.112,1.1233,1.1256,1.1282,1.1291,1.1281,1.1278,1.1316,1.131,1.1306,1.1305,1.1304,1.1303,0,1.0258,1.0309,1.0432,1.0524,1.0549,1.0624,1.0703,1.0772,1.0815,1.0917,1.0943,1.1012,1.1111,1.1163,1.1287,1.1312,1.144,1.1443,1.1412,1.1416,1.1479,1.1473,1.1673,1.1703,1.1551,1.1553,1.1554,0,1.0336,1.0409,1.0508,1.0563,1.0611,1.0699,1.0757,1.0803,1.0864,1.0964,1.1021,1.1121,1.1203,1.1361,1.1424,1.1519,1.1526,1.1589,1.1541,1.1529,1.153,1.1525,1.1534,1.1598,1.16,1.1601,1.1602,0,1.0469,1.0491,1.0574,1.0667,1.0737,1.0813,1.0887,1.0931,1.099,1.1057,1.1158,1.1222,1.1349,1.1449,1.155,1.1601,1.1613,1.1617,1.1637,1.1629,1.1609,1.1623,1.1437,1.1612,1.1611,1.161,1.161,1.1609,1.0558,1.0625,1.0706,1.0799,1.086,1.093,1.0999,1.1052,1.1136,1.1243,1.1265,1.1372,1.1455,1.1591,1.1645,1.1731,1.1718,1.1748,1.1756,1.1763,1.1766,1.1593,1.1749,1.1749,1.1749,1.1749,1.1749,0,1.0694,1.0748,1.0832,1.0937,1.1011,1.1013,1.1097,1.1159,1.1253,1.1329,1.1409,1.1527,1.1624,1.1695,1.1795,1.185,1.1858,1.1875,1.1872,1.1885,1.1771,1.1744,1.1867,1.1867,1.1867,1.1867,1.1867,1.1867,1.0774,1.0887,1.0919,1.1063,1.1116,1.1221,1.1269,1.1334,1.1395,1.1525,1.1606,1.165,1.1725,1.183,1.1921,1.1939,1.1976,1.1993,1.2012,1.1905,1.1892,1.188,1.1855,1.2,1.2,1.2119,1.212,1.2121]},{"header":{"parameterUnit":"m.s-1","parameterCategory":1,"la1":30.2991,"la2":30.254,"lo1":-89.0895,"lo2":-89.0444,"dy":0.0017,"dx":0.0017,"nx":28,"ny":28,"refTime":"2024-02-27T09:00:00:Z","depth":0,"parameterNumber":3,"parameterNumberName":"V-component_of_WINDS"},"data":[0,0,0,0,0,0,0,0,0,0,0,0,0,0,0,0,0,0,0,0,0,0,0,0,0,0,0,0,0,0,0,0,0,0,0,0,0,0,0,0,0,0,0,0,0,0,0,0,0,0,0,0,0,0,0,0,0,0,-7.6214,-7.621,0,-7.5781,-7.5776,-7.5771,-7.5656,-7.5658,-7.5661,-7.5664,-7.5186,-7.5171,-7.5156,0,0,0,0,0,0,0,0,0,0,0,0,0,-7.6906,-7.6894,-7.6215,-7.621,-7.6204,-7.5782,-7.5776,-7.577,-7.5655,-7.5658,-7.5662,-7.5665,-7.5191,-7.5173,-7.5155,0,0,0,0,0,0,0,0,0,0,0,0,0,-7.6552,-7.689,-7.6216,-7.6097,-7.6082,-7.5783,-7.5776,-7.5768,-7.5654,-7.5659,-7.5663,-7.5666,-7.5197,-7.5175,-7.5152,-7.4931,0,0,-7.5082,-7.5073,0,0,0,0,0,0,0,0,-7.6572,-7.6526,-7.612,-7.6104,-7.6087,-7.5778,-7.5844,-7.5486,-7.5653,-7.5816,-7.5664,-7.5668,-7.5377,-7.534,-7.5249,-7.4909,-7.4888,-7.508,-7.5067,-7.5057,-7.505,0,0,0,0,0,0,0,-7.6597,-7.6544,-7.6042,-7.6114,-7.6094,-7.6053,-7.6007,-7.5776,-7.5578,-7.5802,-7.5793,-7.5745,-7.5369,-7.5271,-7.5236,-7.4881,-7.5081,-7.5061,-7.5047,-7.5038,-7.4323,-7.4318,0,0,0,0,0,0,-7.6647,-7.6566,-7.6056,-7.6029,-7.6346,-7.6037,-7.5986,-7.5872,-7.5581,-7.5541,-7.5742,-7.5741,-7.5308,-7.5263,-7.5219,-7.4932,-7.5057,-7.5036,-7.5022,-7.4328,-7.4322,-7.4316,0,0,0,0,0,0,-7.6662,-7.6603,-7.6073,-7.6295,-7.6225,-7.6021,-7.5894,-7.5861,-7.5764,-7.5536,-7.5496,-7.5681,-7.5309,-7.5251,-7.5003,-7.4914,-7.5025,-7.5005,-7.4334,-7.4326,-7.4319,-7.4361,0,0,0,0,0,0,-7.6683,-7.6609,-7.6532,-7.6295,-7.6214,-7.5876,-7.5889,-7.585,-7.5729,-7.5724,-7.5468,-7.5428,-7.5308,-7.5038,-7.498,-7.4884,-7.4987,-7.4341,-7.4331,-7.4321,-7.4367,-7.4356,-7.4347,0,0,0,0,0,-7.6708,-7.6556,-7.6529,-7.6468,-7.6115,-7.5872,-7.5824,-7.5698,-7.5723,-7.5636,-7.5488,-7.5437,-7.4935,-7.5013,-7.4947,-7.4843,-7.4346,-7.4334,-7.4322,-7.4371,-7.4358,-7.4347,0,0,0,0,0,0,-7.6778,-7.6523,-7.649,-7.626,-7.609,-7.5853,-7.5741,-7.5689,-7.55,-7.5501,-7.5343,-7.5285,-7.5045,-7.4919,-7.5012,-7.4607,-7.4638,-7.4613,-7.4698,-7.4683,-7.4674,-7.4704,-7.4968,0,0,0,0,0,-7.677,-7.6605,-7.6386,-7.6203,-7.612,-7.5946,-7.5835,-7.5754,-7.5566,-7.549,-7.5324,-7.5134,-7.4931,-7.4801,-7.4604,-7.435,-7.4284,-7.4245,-7.4235,-7.4228,-7.4204,-7.4047,-7.4023,-7.4277,-7.4277,-7.4277,0,0,-7.6744,-7.6584,-7.6488,-7.6213,-7.6072,-7.5891,-7.5886,-7.5698,-7.5558,-7.5457,-7.5213,-7.5085,-7.486,-7.4606,-7.4485,-7.4493,-7.412,-7.4212,-7.4209,-7.4188,-7.4032,-7.4009,-7.3987,-7.4269,-7.427,-7.4271,0,0,-7.6606,-7.6475,-7.6304,-7.6163,-7.5952,-7.5836,-7.5795,-7.5565,-7.5478,-7.5234,-7.5152,-7.4977,-7.4637,-7.4478,-7.4352,-7.4149,-7.4088,-7.4088,-7.4031,-7.388,-7.386,-7.3841,-7.3757,-7.373,-7.4067,-7.4067,-7.4067,0,-7.6598,-7.6336,-7.6219,-7.6034,-7.5909,-7.5821,-7.5637,-7.5503,-7.5233,-7.5143,-7.516,-7.4726,-7.4569,-7.4271,-7.4221,-7.4126,-7.4062,-7.4113,-7.3875,-7.3855,-7.3835,-7.3752,-7.3723,-7.4068,-7.4068,-7.4068,-7.4068,0,-7.6331,-7.6149,-7.6034,-7.5787,-7.5649,-7.5466,-7.5308,-7.5181,-7.511,-7.4988,-7.4732,-7.4542,-7.43,-7.4224,-7.415,-7.391,-7.3921,-7.391,-7.3935,-7.3814,-7.3733,-7.3701,-7.4069,-7.4068,-7.4068,-7.4068,0,0,-7.6222,-7.5913,-7.5871,-7.5753,-7.5512,-7.5362,-7.5169,-7.4943,-7.4831,-7.4647,-7.4471,-7.4183,-7.4169,-7.4026,-7.3932,-7.3802,-7.3637,-7.3802,-7.3794,-7.3769,-7.3346,-7.3351,-7.3318,-7.36,-7.3594,-7.3589,-7.3362,0,-7.6046,-7.5712,-7.5598,-7.5314,-7.5136,-7.5047,-7.4876,-7.4702,-7.4582,-7.4404,-7.4266,-7.4061,-7.4064,-7.3975,-7.3843,-7.3687,-7.3549,-7.3702,-7.342,-7.3412,-7.3471,-7.3277,-7.3282,-7.3077,-7.333,-7.3325,-7.3321,0,-7.5796,-7.5617,-7.5319,-7.5093,-7.5014,-7.4865,-7.4642,-7.4479,-7.4273,-7.4194,-7.4035,-7.395,-7.3729,-7.3775,-7.346,-7.3568,-7.3444,-7.3349,-7.3338,-7.3298,-7.3353,-7.3221,-7.301,-7.2975,-7.3272,-7.3276,-7.328,0,-7.5734,-7.5418,-7.5196,-7.5099,-7.4833,-7.4727,-7.4609,-7.441,-7.4278,-7.408,-7.3989,-7.3766,-7.364,-7.3462,-7.3312,-7.3362,-7.3006,-7.3043,-7.292,-7.2924,-7.2843,-7.2848,-7.2598,-7.2782,-7.2782,-7.2783,-7.2783,0,-7.5544,-7.5362,-7.5164,-7.5026,-7.4814,-7.468,-7.447,-7.4344,-7.4167,-7.3992,-7.39,-7.3735,-7.3554,-7.3361,-7.3242,-7.2992,-7.2938,-7.2856,-7.2825,-7.2859,-7.2868,-7.2769,-7.2775,-7.2774,-7.2776,-7.2778,-7.2779,0,-7.5436,-7.5299,-7.5049,-7.4819,-7.4756,-7.4609,-7.4404,-7.4259,-7.4137,-7.3916,-7.3856,-7.3657,-7.3425,-7.3262,-7.2961,-7.288,-7.2607,-7.2582,-7.2679,-7.2661,-7.2544,-7.2553,-7.2213,-7.2156,-7.239,-7.2388,-7.2386,0,-7.532,-7.5178,-7.4935,-7.4817,-7.4702,-7.4512,-7.4379,-7.4237,-7.4099,-7.3852,-7.3733,-7.3498,-7.3301,-7.2932,-7.2751,-7.2517,-7.2478,-7.2375,-7.2441,-7.2477,-7.2462,-7.2468,-7.2447,-7.2362,-7.236,-7.2359,-7.2358,0,-7.5124,-7.5062,-7.488,-7.4671,-7.4516,-7.4342,-7.4165,-7.407,-7.3895,-7.3742,-7.351,-7.3358,-7.3053,-7.2814,-7.2562,-7.2424,-7.2354,-7.2341,-7.2297,-7.2325,-7.2383,-7.2338,-7.264,-7.2346,-7.2347,-7.2348,-7.2349,-7.2349,-7.4999,-7.4866,-7.4673,-7.4469,-7.4324,-7.416,-7.4011,-7.3871,-7.3679,-7.3426,-7.3352,-7.3106,-7.2892,-7.2549,-7.2408,-7.2203,-7.2208,-7.2149,-7.2132,-7.2117,-7.2112,-7.2426,-7.2158,-7.2158,-7.2158,-7.2158,-7.2158,0,-7.4788,-7.4661,-7.4476,-7.4236,-7.4071,-7.4037,-7.3837,-7.3697,-7.3487,-7.33,-7.311,-7.2835,-7.2602,-7.2404,-7.2159,-7.2032,-7.1993,-7.1971,-7.1972,-7.1939,-7.2127,-7.2184,-7.2006,-7.2006,-7.2006,-7.2006,-7.2006,-7.2006,-7.4659,-7.4429,-7.4343,-7.4033,-7.3902,-7.367,-7.3557,-7.34,-7.3249,-7.2951,-7.2761,-7.2639,-7.2441,-7.218,-7.1959,-7.1905,-7.1813,-7.1796,-7.1733,-7.191,-7.1927,-7.1944,-7.1996,-7.178,-7.178,-7.156,-7.1558,-7.1556]}]]